Temp
17 17 18 18 19 19 19 18 18 18 18 18 18 18 18 18 18 18 18 18 18 19 19 18 18 18 19 19 19 19 19 19 18 18 17 17 17 16 16 16 16 16 16 16 16 16 16 16 16 15 15 15 15 15 15 15 15 15 15 15 15 15 15 15 15 14 14 13 13 13 13 13 12 12 12 12 12 12 12 12 12 12 12 12 13
17 18 18 18 18 18 18 18 17 17 18 18 17 18 18 18 18 18 18 18 19 19 18 18 18 18 18 19 19 18 19 19 19 18 18 17 17 16 16 16 16 16 16 16 16 16 15 16 16 15 15 15 15 15 15 15 15 15 15 15 15 15 15 15 15 15 14 14 14 13 13 13 12 12 12 12 12 12 12 12 12 12 12 12 12
18 18 18 18 18 18 18 17 17 17 17 17 17 18 18 18 18 18 18 19 19 19 18 18 18 18 18 19 19 18 18 18 19 19 18 17 17 17 16 16 16 16 16 16 16 16 16 16 16 15 15 15 15 15 15 15 15 15 15 15 15 14 14 14 14 14 15 14 14 14 13 13 13 13 13 12 12 12 12 12 12 12 12 12 12
18 18 18 18 18 17 17 17 17 17 17 18 18 18 18 18 18 18 18 19 19 19 19 18 18 18 18 18 18 18 18 18 18 18 17 17 18 17 16 16 16 16 16 16 16 16 16 16 16 15 15 15 15 15 15 15 15 15 15 15 15 14 14 14 14 14 14 14 14 14 14 14 14 14 13 13 13 12 12 12 12 12 12 12 12
18 18 18 18 17 17 17 17 17 17 17 18 18 18 18 18 18 18 18 19 19 19 18 18 18 18 18 18 18 18 18 18 17 17 18 18 18 17 16 16 16 16 16 16 16 16 16 16 16 16 16 15 15 15 15 15 15 15 15 15 15 15 14 14 14 13 14 14 14 14 14 14 14 14 14 14 13 13 13 12 12 12 12 12 12
18 18 18 18 17 17 17 18 17 17 17 17 18 18 18 18 18 18 18 19 19 19 18 18 18 18 18 17 18 18 18 17 16 17 18 18 17 17 16 16 16 16 16 16 16 16 16 16 16 16 16 16 15 16 15 15 16 15 15 15 15 15 15 14 14 14 13 13 14 14 14 14 14 14 14 14 14 13 13 13 12 12 12 12 12
18 18 18 18 17 17 18 18 17 17 17 18 18 18 18 18 18 18 18 18 18 18 18 18 18 18 17 17 17 17 17 15 16 18 18 18 17 17 17 16 16 16 16 16 16 16 16 16 16 16 16 16 16 16 15 16 16 16 15 15 15 15 15 15 14 14 14 13 14 14 14 14 14 14 14 14 14 14 13 13 12 12 12 12 12
18 18 18 18 17 17 18 17 17 17 18 18 18 18 18 18 17 18 18 18 18 17 17 17 17 17 17 17 17 17 16 15 17 18 17 17 17 17 17 17 16 16 16 16 16 16 16 16 16 16 16 16 16 16 16 16 16 16 16 15 15 15 15 15 14 14 14 14 14 14 14 13 13 13 13 13 14 14 13 13 13 12 12 12 11
18 18 18 18 17 17 17 17 17 17 17 17 17 17 18 18 17 17 18 18 17 17 17 17 17 17 17 17 17 17 16 16 18 18 17 17 17 17 17 16 16 16 16 16 16 16 16 16 16 16 16 16 16 16 16 15 16 16 16 15 15 15 15 15 15 15 15 15 14 14 14 14 13 13 13 13 13 13 13 13 12 12 12 12 11
18 17 17 17 17 17 17 17 17 17 17 17 17 17 17 18 17 17 17 18 18 17 17 17 17 17 17 17 17 17 16 17 18 17 17 17 17 17 16 16 16 16 16 16 16 16 16 16 16 16 16 16 16 16 15 15 16 16 15 15 15 15 15 15 15 15 15 15 15 15 14 14 14 14 13 13 13 13 12 12 12 12 12 12 12
17 17 17 17 17 17 17 17 17 17 17 17 17 17 17 17 17 17 17 17 18 18 17 17 17 17 17 17 17 17 16 17 18 18 18 17 17 17 16 16 16 16 16 16 16 16 16 16 16 16 16 16 16 16 16 15 15 15 15 15 15 15 15 15 15 15 15 15 15 15 15 15 15 14 14 14 14 13 13 13 12 12 12 12 12
17 17 17 17 17 17 17 17 17 17 17 17 17 17 17 17 17 17 17 17 17 17 17 17 17 17 17 17 17 17 16 17 18 18 18 17 17 17 17 17 17 16 16 16 16 16 16 16 16 16 16 16 16 16 15 15 15 15 15 15 15 16 16 16 16 15 15 15 15 15 15 15 15 15 14 14 14 14 14 13 13 12 12 12 12
17 17 17 17 17 17 17 17 17 17 17 17 17 17 17 17 17 17 17 17 17 17 17 17 17 17 17 17 17 17 16 16 17 17 18 17 17 17 17 17 17 17 16 16 16 16 16 15 15 15 16 15 15 15 15 15 15 15 15 15 16 16 16 16 16 15 15 15 15 15 15 15 15 15 14 14 14 14 14 14 14 13 13 13 13
17 17 17 17 17 17 17 17 16 16 17 17 17 17 17 17 17 17 17 17 16 17 17 17 17 17 17 17 17 17 17 16 17 17 17 17 17 17 17 17 17 17 16 16 16 16 15 15 15 15 15 15 15 15 15 15 15 15 15 15 16 16 15 16 16 15 15 15 15 15 15 15 15 14 14 14 14 14 14 14 14 14 14 14 13
17 17 17 17 17 17 17 17 17 17 17 17 16 17 17 17 17 17 17 16 16 16 17 17 17 17 17 17 16 16 17 17 17 17 17 17 17 17 17 17 17 16 16 16 16 16 15 15 15 15 15 15 15 15 15 15 15 15 15 15 15 15 15 15 15 15 15 15 15 15 15 15 15 15 14 14 14 14 14 14 14 14 14 14 14
17 17 17 17 17 17 17 17 17 17 17 17 17 17 17 17 17 17 17 17 16 16 17 17 17 17 17 16 15 16 17 17 16 17 17 17 17 17 17 17 16 16 16 16 15 15 15 15 15 15 15 15 15 15 15 15 15 15 15 15 15 15 15 15 15 15 15 15 14 15 15 15 15 15 15 15 14 14 14 14 14 14 14 14 14
17 17 17 17 17 17 17 17 17 17 17 17 17 17 17 17 17 17 17 17 17 16 16 17 17 17 17 16 16 16 17 16 16 16 17 17 17 17 17 17 16 16 16 16 15 15 15 15 15 15 15 15 15 15 15 15 15 15 15 15 15 15 15 15 15 15 15 15 15 15 15 14 14 15 15 15 14 14 14 14 14 14 14 14 14
17 17 17 17 17 17 17 17 17 17 17 17 17 17 16 17 17 17 17 18 18 17 16 16 17 17 17 17 17 17 17 16 16 16 16 17 17 17 17 17 16 16 16 16 15 15 15 15 15 15 15 15 15 15 15 15 15 15 15 15 15 15 15 15 14 14 14 14 14 14 14 14 14 14 14 14 14 14 14 15 15 14 14 14 14
18 17 17 17 18 17 17 17 17 17 17 17 17 17 17 17 17 17 17 17 18 17 17 17 16 17 17 17 18 18 17 17 16 16 16 16 16 17 17 17 17 16 16 15 15 15 15 15 15 15 15 15 15 15 15 15 15 15 15 15 15 15 15 15 14 14 14 14 14 14 14 14 14 15 15 14 14 14 14 14 14 14 14 14 14
18 18 18 18 18 18 17 17 17 17 17 17 17 17 17 17 16 17 17 17 17 17 17 17 17 17 17 17 18 18 18 18 17 16 16 15 15 16 16 16 16 16 15 15 15 15 15 15 15 15 15 15 15 15 15 15 15 15 15 15 15 15 15 15 15 14 14 14 14 14 14 14 14 14 15 15 15 14 14 14 14 14 14 14 14
18 18 18 18 18 18 18 18 17 17 17 17 17 17 17 17 17 17 17 17 17 17 17 17 17 17 17 17 17 17 18 18 18 17 16 15 15 15 16 16 16 15 15 15 15 15 15 15 15 15 15 15 15 15 15 15 15 15 15 15 15 15 15 15 15 15 15 14 14 15 14 14 14 14 14 14 15 15 14 14 14 14 14 14 14
18 18 18 18 18 18 18 18 18 17 17 17 17 17 17 17 17 17 17 17 17 17 17 17 17 17 17 17 17 17 17 17 17 17 16 16 16 15 15 16 15 15 15 15 15 15 15 15 15 15 15 15 15 15 15 15 15 15 15 15 15 15 15 15 15 15 15 15 15 15 15 15 14 14 14 14 14 14 14 14 14 14 14 14 14
18 18 17 17 18 18 18 18 18 18 17 17 17 17 17 17 17 17 17 17 17 17 17 17 17 17 17 17 18 18 17 17 17 17 17 16 15 15 15 16 15 15 14 15 15 15 15 15 15 15 15 15 15 15 15 15 15 14 15 15 15 15 15 15 15 15 15 15 15 15 15 15 15 15 15 14 14 14 14 14 14 14 14 14 14
18 18 18 18 17 18 18 18 18 18 17 17 17 17 17 17 17 17 17 17 17 17 17 17 17 17 17 17 18 18 18 18 18 18 18 17 16 15 15 16 16 15 14 15 15 15 15 15 15 15 15 15 15 15 15 15 14 14 15 15 15 15 15 15 15 15 15 15 15 15 15 15 15 15 15 15 15 15 15 15 14 14 14 14 14
18 17 17 17 17 17 18 18 18 17 17 17 17 17 17 17 17 17 17 17 17 17 17 17 17 17 17 17 17 18 18 18 18 18 18 18 17 15 15 16 16 15 14 15 14 14 15 15 15 15 15 15 15 15 15 15 14 15 15 15 15 15 15 15 15 15 14 14 14 14 14 14 14 14 14 14 14 14 14 14 14 14 14 14 14
17 17 17 17 17 17 17 17 17 17 17 17 17 17 17 17 17 17 17 17 17 17 17 17 17 17 17 17 17 18 18 18 18 18 18 18 17 16 16 16 16 15 15 15 15 14 14 15 15 15 15 15 15 14 15 15 14 14 15 15 15 15 15 15 14 14 14 14 14 14 14 14 14 14 14 14 14 14 14 14 14 14 14 14 14
17 17 17 17 17 17 17 17 17 17 17 17 17 17 17 17 17 17 17 17 17 17 17 17 17 17 17 17 17 18 18 18 18 18 19 19 18 17 17 16 16 15 15 14 14 15 15 15 15 15 15 15 15 15 15 15 14 14 14 15 15 15 15 15 14 14 14 14 14 14 14 14 14 13 14 14 14 13 13 13 13 13 13 13 13
17 17 17 17 17 17 17 17 17 17 17 17 17 17 17 17 16 17 17 17 17 18 18 18 18 18 18 18 18 18 18 19 19 18 19 19 18 18 18 17 16 15 15 15 14 14 15 15 14 15 15 15 15 15 15 15 15 15 15 15 15 15 15 15 14 14 14 14 14 14 14 14 13 13 14 14 14 13 13 13 13 13 13 13 13
17 17 17 17 17 17 17 17 17 17 17 17 17 17 16 16 16 17 17 18 18 18 18 18 18 18 18 18 18 19 19 19 19 19 19 19 18 18 18 18 17 16 15 15 14 14 14 14 15 15 15 15 15 15 15 15 15 15 15 15 15 15 15 15 14 14 14 14 14 14 13 13 13 13 13 13 13 13 13 12 12 12 12 12 12
17 17 17 17 17 17 17 17 17 17 17 17 17 17 17 17 17 17 18 18 18 18 18 18 18 19 19 19 19 19 19 20 19 19 19 19 19 18 18 18 18 17 16 15 15 15 15 15 15 15 15 15 16 15 15 15 15 15 15 15 15 15 15 15 14 14 14 14 14 13 13 13 13 13 13 13 13 13 13 12 12 12 12 12 12
17 17 16 16 16 17 17 17 17 17 17 17 17 17 17 17 17 17 18 18 18 18 18 18 18 19 19 19 19 19 19 19 19 18 18 19 19 19 19 18 18 18 17 15 15 15 15 15 16 16 16 16 16 16 15 15 15 15 15 15 15 15 15 15 14 14 14 14 14 13 13 13 13 13 12 12 12 12 12 12 12 12 12 12 12
17 17 16 16 16 16 17 17 17 17 17 17 17 17 17 17 17 17 17 18 18 18 18 18 18 18 19 19 18 18 19 19 19 18 18 19 19 19 19 18 18 18 18 16 15 15 16 16 16 16 16 16 16 16 16 16 16 16 15 15 15 15 15 14 14 14 14 14 13 13 13 13 13 12 12 12 12 12 12 12 12 12 12 12 11
17 16 16 16 16 16 17 17 17 17 17 17 17 17 17 17 17 17 17 17 17 17 18 18 18 18 18 18 18 18 18 18 18 18 19 19 19 19 19 18 18 18 18 17 16 15 16 16 16 16 16 16 16 16 16 16 16 16 16 15 15 15 15 14 14 14 14 13 13 13 13 13 12 12 12 12 12 11 11 11 11 12 12 12 11
17 17 16 16 16 16 17 17 17 17 17 17 17 17 17 17 17 17 17 17 17 17 18 18 17 18 18 18 18 18 18 18 18 18 18 18 19 19 19 18 18 18 18 18 16 15 16 16 16 16 16 16 16 16 16 16 16 16 15 15 15 15 14 14 14 14 14 13 13 13 13 12 12 12 12 11 11 11 11 11 11 11 11 12 11
17 17 17 16 16 16 17 17 17 17 17 17 17 17 17 17 17 17 17 17 17 17 18 17 17 17 17 18 18 18 18 18 18 18 18 18 18 19 18 18 18 18 18 18 17 16 16 16 16 16 16 16 16 16 16 16 15 15 15 15 15 15 14 14 14 14 14 13 13 13 13 13 12 12 11 11 11 11 11 11 11 11 11 12 12
17 17 17 17 16 16 17 17 17 17 17 17 17 17 17 17 17 17 17 17 17 17 17 17 17 17 18 18 18 18 18 18 18 18 18 18 18 18 18 18 18 18 18 18 18 17 17 16 16 16 16 16 16 16 16 16 15 15 15 15 15 15 14 14 14 14 13 13 13 13 13 13 12 12 12 12 12 12 12 11 11 11 11 11 11
17 17 17 17 17 17 17 17 17 17 17 17 17 17 17 17 17 17 17 17 17 17 17 17 17 17 18 18 18 18 18 18 18 18 18 18 18 18 18 18 18 18 17 17 17 17 17 16 16 16 16 16 16 16 16 16 15 15 15 15 15 14 14 14 14 13 13 13 13 13 12 12 12 12 12 12 12 12 11 11 11 11 11 11 11
17 17 17 17 17 17 17 17 17 17 17 17 17 17 17 17 17 17 17 17 17 17 17 17 17 17 18 18 18 18 18 18 18 18 18 18 18 18 17 17 17 17 17 17 17 17 17 17 17 17 16 16 16 16 16 16 16 15 15 14 14 14 14 14 13 13 13 12 12 12 12 12 12 12 12 12 11 11 11 11 11 11 11 11 11
17 17 17 17 17 17 17 17 17 17 17 17 17 17 17 17 17 17 17 17 17 17 17 17 18 18 18 18 18 18 18 18 18 17 17 17 17 18 17 17 17 17 17 17 17 17 17 17 16 16 17 16 16 16 16 16 16 15 15 14 14 13 13 13 13 13 13 12 12 12 12 12 12 12 12 11 11 11 11 11 11 10 10 10 10
17 17 17 17 17 17 17 17 17 17 17 17 17 17 17 17 17 17 17 17 17 17 17 17 18 18 18 18 18 18 18 18 17 17 17 17 17 17 17 17 17 17 17 17 16 16 16 16 16 16 16 16 16 15 15 16 15 15 15 14 14 13 13 13 13 12 12 12 12 12 12 12 12 11 11 11 10 10 10 10 10 10 10 10 10
17 17 17 18 17 17 17 17 17 17 17 17 17 17 17 17 17 17 17 17 17 17 17 17 17 17 17 17 17 17 17 17 17 17 17 17 17 17 17 17 17 16 16 16 16 16 16 16 16 16 16 16 15 15 15 15 15 15 14 14 14 13 12 12 12 12 12 12 12 12 11 11 11 11 11 10 10 10 10 10 10 9 9 9 9
17 17 17 18 18 17 17 17 17 17 17 17 17 17 17 17 17 17 17 17 17 17 17 17 17 17 17 17 17 17 17 17 17 17 17 17 17 17 17 17 17 17 16 16 16 16 16 16 15 15 15 15 15 15 15 15 14 14 14 14 13 13 12 12 12 11 11 11 11 11 11 11 10 10 10 9 9 9 9 9 9 8 9 9 9
17 17 17 17 17 17 18 17 17 17 17 17 17 17 17 17 17 17 17 17 17 17 17 17 17 17 17 17 17 17 17 17 17 17 17 16 16 16 16 16 16 16 16 16 16 16 16 16 15 15 15 15 15 15 15 14 14 13 13 13 13 12 12 12 11 11 11 10 10 11 10 10 10 10 9 9 9 9 8 8 8 8 8 8 8
16 16 17 17 17 17 17 17 17 17 17 17 17 17 17 17 17 17 17 17 17 17 17 17 17 17 17 17 16 16 16 17 17 16 16 16 16 16 16 16 16 16 16 16 16 16 16 15 15 15 15 15 14 14 14 13 13 13 13 12 12 12 11 11 11 10 10 9 9 9 9 9 9 9 9 8 8 8 8 7 7 7 7 7 7
16 16 16 16 16 16 16 17 17 17 17 17 17 17 17 17 17 17 17 17 17 17 17 17 17 16 16 16 16 16 16 16 16 16 16 16 16 16 16 16 15 15 15 15 15 15 15 15 15 15 15 14 14 14 14 13 13 13 12 12 12 11 11 10 10 10 9 9 8 8 8 8 8 8 8 8 8 8 7 7 7 7 7 7 7
15 16 15 15 15 15 16 16 16 16 16 17 17 17 17 17 17 17 17 17 17 17 17 17 16 16 16 16 16 16 16 16 16 16 16 16 16 16 15 15 15 15 15 15 15 15 15 15 15 15 15 14 14 14 13 13 12 12 12 11 11 10 10 10 9 9 9 8 8 8 8 7 7 7 7 7 7 7 7 6 7 6 6 6 6
15 15 15 15 15 15 15 15 15 15 16 16 16 16 16 17 17 17 17 17 16 16 16 16 16 16 16 16 16 16 16 15 15 15 15 15 15 15 15 15 15 15 15 14 14 14 14 14 14 14 14 14 13 13 13 12 12 12 11 11 10 10 10 9 9 9 8 7 7 8 7 7 6 7 7 7 7 7 6 6 6 6 6 6 5
14 14 14 14 14 14 14 14 15 15 15 15 16 16 16 16 16 16 16 16 16 16 16 16 16 16 16 16 16 16 15 15 14 14 14 14 13 14 14 14 14 14 14 14 13 13 13 13 13 14 13 13 12 12 12 11 11 11 11 10 10 9 9 9 8 8 7 7 7 7 7 6 6 6 6 6 6 6 6 6 6 6 5 5 5
13 13 13 14 14 14 14 14 14 15 15 15 15 15 15 15 15 15 15 15 15 15 15 15 16 16 16 15 15 15 15 15 14 14 14 13 13 13 13 13 13 13 13 12 12 12 12 12 12 12 12 12 11 11 11 11 11 10 10 10 9 9 9 8 7 7 7 6 6 6 6 6 6 5 5 5 5 5 5 5 5 5 5 4 4
12 12 12 13 13 13 14 14 14 14 14 15 15 15 15 15 15 14 14 14 14 15 15 15 15 15 15 14 14 14 14 14 14 14 14 14 13 13 13 13 12 12 12 11 11 11 11 11 11 11 11 11 11 11 11 10 10 10 9 9 9 8 8 7 7 6 6 6 5 6 6 5 5 5 4 4 5 5 5 5 4 4 4 4 3
11 11 12 12 12 13 13 13 13 13 14 14 14 15 15 15 15 14 14 14 13 14 14 14 14 14 14 14 14 14 14 14 14 14 13 13 13 13 13 12 12 12 11 11 11 11 11 11 11 11 11 10 10 10 10 10 9 9 9 9 9 8 7 7 6 6 6 5 5 5 5 5 4 4 4 3 3 4 4 4 3 4 4 3 3
Height
828 828 828 829 830 830 830 831 831 832 833 834 835 835 836 836 836 836 837 838 838 839 839 839 841 842 843 844 844 845 846 847 847 848 848 849 850 850 850 850 850 851 851 851 851 851 851 852 852 852 852 852 852 852 852 852 852 852 852 852 851 851 851 851 851 851 851 851 851 851 851 851 851 851 851 850 850 850 849 849 849 849 849 849 849
828 828 828 829 830 830 831 831 831 832 833 834 835 835 836 836 836 836 836 837 838 838 839 840 841 842 843 844 845 846 846 847 848 848 849 850 850 850 850 851 851 852 852 852 852 852 852 852 852 852 853 853 853 853 852 852 852 852 853 853 852 852 852 851 851 851 851 851 851 851 851 851 851 851 851 851 851 850 850 850 849 849 850 850 850
827 828 828 829 830 830 831 831 832 832 833 833 834 835 836 836 836 836 836 836 837 838 839 841 841 842 842 844 845 846 847 848 848 849 849 850 850 850 851 852 852 852 852 853 853 853 853 853 853 853 853 853 853 853 853 852 852 853 853 853 853 853 852 852 852 852 851 851 851 852 852 852 852 851 851 851 851 851 851 851 850 850 850 851 851
827 828 828 829 830 830 831 831 832 832 833 833 834 835 835 836 836 836 836 836 836 837 839 840 840 841 842 844 845 846 847 848 849 849 850 850 850 850 852 853 853 853 853 853 854 854 854 854 854 854 854 854 854 854 854 853 853 853 853 853 853 853 853 853 852 852 852 852 852 852 852 852 852 852 852 851 851 851 852 851 851 851 851 851 851
827 828 828 829 829 830 831 831 832 832 832 833 834 835 835 835 835 836 836 836 836 837 838 840 841 840 841 844 845 846 847 848 850 851 850 850 850 852 852 853 853 853 854 854 854 855 855 855 855 855 855 855 855 855 855 854 854 854 854 854 854 854 854 854 853 853 853 852 852 852 852 852 852 852 852 852 852 852 852 852 852 852 851 851 851
827 827 828 828 829 830 831 831 832 832 832 833 834 834 834 835 835 836 836 836 835 836 838 841 842 840 842 844 845 847 848 849 851 851 850 850 852 852 852 853 853 854 855 855 855 855 855 856 856 856 856 856 856 856 856 856 855 855 855 855 855 855 854 854 854 854 853 853 853 853 853 853 853 853 852 852 852 852 852 852 852 852 852 852 852
826 827 827 828 829 829 830 831 832 832 832 833 833 834 834 835 835 836 836 835 835 836 837 840 840 840 843 845 846 847 849 851 852 850 850 852 853 852 852 853 854 855 855 855 855 855 856 856 856 857 857 857 856 856 857 857 857 856 857 856 856 856 856 856 855 855 855 854 854 853 853 853 853 853 853 853 853 852 852 852 852 852 852 852 852
826 827 827 827 828 829 830 831 831 832 832 832 833 834 834 835 835 836 836 835 836 836 838 839 839 841 844 846 847 848 850 852 851 850 852 853 853 853 853 854 855 855 855 855 855 855 856 856 857 857 857 857 857 857 857 857 857 857 857 857 857 858 857 857 857 856 856 855 855 854 854 853 853 853 853 853 853 853 853 853 853 853 853 853 853
826 827 827 827 828 829 830 830 831 831 832 832 833 834 835 835 836 836 836 836 837 838 839 840 840 842 844 846 848 849 851 852 849 850 853 852 853 854 854 855 855 856 856 856 856 856 856 856 857 858 858 858 857 857 857 857 857 856 856 857 858 859 859 859 858 857 856 856 856 855 854 854 854 854 854 853 853 853 853 853 853 853 853 853 853
825 826 827 827 828 828 829 830 831 831 832 832 833 834 835 835 836 837 837 837 838 839 839 841 842 843 845 846 848 849 851 851 850 850 852 852 853 854 854 855 856 856 856 856 856 856 857 857 857 858 858 858 858 858 858 858 857 856 856 857 857 858 858 859 859 858 857 856 856 855 855 854 854 854 854 854 854 854 853 853 854 854 854 854 853
824 825 826 827 827 828 829 830 831 831 832 832 833 833 834 836 836 837 838 838 838 839 840 842 843 844 846 847 849 850 851 851 851 851 852 852 853 853 854 855 855 856 856 856 856 857 857 858 858 858 859 859 859 858 858 858 857 857 856 857 857 858 857 857 857 856 856 856 856 855 855 854 854 854 854 854 854 854 854 854 854 854 854 853 853
824 824 825 826 827 827 828 829 831 831 832 832 833 834 834 835 836 837 837 838 840 840 842 843 844 845 847 848 850 851 851 851 851 852 852 853 853 854 854 855 855 855 855 856 856 857 857 858 858 859 859 859 859 859 859 858 858 857 857 857 857 857 856 855 855 855 855 855 856 855 854 853 854 854 854 854 854 854 854 854 854 854 854 853 853
823 824 824 825 826 826 827 829 830 831 832 833 833 834 835 836 837 837 838 839 840 842 843 843 844 846 847 849 850 851 852 852 852 852 853 853 854 854 855 855 855 855 855 856 856 857 858 858 859 859 859 860 860 860 859 859 859 858 858 857 857 856 855 854 854 854 855 855 855 854 852 852 853 854 854 854 854 854 854 854 854 854 854 853 853
823 824 824 824 825 826 827 828 830 831 832 833 833 834 835 836 837 838 839 839 840 842 843 844 844 846 847 848 850 851 852 853 853 853 853 854 855 855 856 856 856 855 856 856 857 857 858 859 859 860 860 860 860 860 860 860 860 859 858 857 856 855 855 855 854 854 855 854 854 852 851 852 853 853 854 854 854 854 854 854 854 854 854 854 853
823 824 824 824 825 826 827 828 830 831 832 833 833 834 836 837 837 838 839 840 841 842 843 843 844 846 847 849 851 851 852 853 854 854 855 855 856 856 856 856 856 856 856 857 858 858 859 860 860 860 861 861 861 861 861 860 860 860 859 858 857 856 856 855 855 855 855 854 853 853 852 852 853 853 853 853 853 853 854 855 854 854 854 854 853
823 824 824 824 825 826 827 828 830 831 832 833 833 834 836 837 838 839 839 839 840 841 842 843 844 845 847 850 852 853 854 854 854 855 856 856 857 857 857 857 857 857 857 858 858 859 860 860 861 861 862 862 862 862 861 861 861 860 860 859 857 857 856 856 855 855 855 854 854 853 853 852 852 852 852 852 853 853 854 854 854 854 853 853 853
823 824 824 825 826 827 828 829 830 831 832 833 833 835 836 837 838 839 839 839 839 840 842 843 844 845 846 848 851 853 854 854 854 856 856 856 858 858 858 858 858 858 858 858 859 860 861 861 862 863 863 863 863 862 862 861 861 861 860 859 858 857 856 856 856 856 855 855 855 854 854 853 853 852 852 852 853 853 853 853 853 853 853 853 853
824 825 825 825 826 827 828 829 830 831 832 833 834 835 836 837 838 839 839 839 839 840 842 843 844 845 845 846 848 850 851 851 854 857 858 857 858 859 859 859 859 859 859 860 861 861 862 863 864 864 864 864 864 863 863 862 862 861 860 859 859 858 857 857 857 857 857 856 856 856 855 854 854 853 853 853 853 853 853 852 852 852 852 853 853
824 825 826 826 827 827 828 829 829 830 832 833 834 835 836 837 838 839 839 840 840 840 841 843 844 845 846 846 847 847 848 850 852 855 858 859 859 859 860 861 861 861 861 862 863 863 864 865 865 865 865 865 865 864 864 863 862 862 861 860 859 859 858 858 858 858 858 858 858 857 856 855 855 854 854 854 854 854 853 853 852 852 852 852 852
826 826 827 827 828 828 829 829 830 831 832 833 834 835 836 838 839 839 840 840 841 841 842 843 844 845 846 847 847 848 849 850 851 852 856 860 861 861 861 862 862 863 863 864 864 865 866 866 867 867 866 866 865 865 865 864 864 863 862 861 861 860 859 859 859 859 859 859 858 858 857 856 856 855 855 855 854 854 854 853 853 852 852 852 851
827 827 827 828 828 829 829 830 831 832 832 833 834 835 836 837 838 839 840 840 841 842 842 843 843 845 846 847 848 848 850 851 852 853 854 858 862 862 862 863 864 865 865 865 866 867 867 867 868 868 867 867 867 867 866 866 865 864 863 863 862 861 861 860 860 860 859 859 859 859 858 858 857 856 856 856 855 855 854 854 853 853 853 853 852
827 827 828 828 829 829 830 830 831 832 833 833 834 835 836 837 838 839 839 840 841 842 842 843 844 845 846 847 847 848 850 851 853 854 855 857 860 861 862 862 864 866 867 867 867 868 868 869 869 868 868 868 868 868 867 867 866 865 865 864 863 863 862 862 861 861 861 860 860 860 860 859 858 858 857 857 857 856 856 855 854 854 854 854 853
827 828 828 828 829 830 830 830 831 832 833 834 835 836 837 838 838 839 839 840 841 841 842 843 844 845 846 847 847 847 849 850 852 853 855 856 859 861 862 862 863 866 868 868 868 869 869 870 869 869 869 868 869 869 868 868 867 867 866 865 865 864 863 863 863 862 862 862 862 861 861 860 860 859 859 858 858 858 857 856 856 855 855 855 854
828 828 828 829 829 830 831 831 831 832 833 834 835 836 837 838 838 839 839 840 840 841 842 842 843 844 845 846 847 848 849 850 851 853 854 855 857 860 862 863 864 866 868 868 869 870 870 870 870 869 869 869 870 870 869 869 868 868 867 867 866 865 865 864 864 864 864 863 863 862 862 862 861 861 860 860 859 858 858 857 857 856 856 855 855
828 828 829 829 830 831 831 832 832 833 834 835 836 836 837 838 838 839 840 840 840 841 841 842 842 843 844 846 847 848 849 851 852 853 854 855 856 859 862 863 864 867 869 869 870 871 871 871 871 870 870 870 870 871 870 870 869 869 869 868 867 867 866 866 866 865 865 865 865 864 864 863 863 862 862 861 860 860 859 858 857 857 856 856 855
828 829 830 830 831 831 832 833 833 834 834 835 836 837 837 838 839 840 840 841 841 841 841 841 842 843 844 845 846 848 849 851 852 853 854 855 856 858 861 864 865 867 869 870 870 871 871 872 871 871 871 872 871 871 871 871 870 870 870 870 869 868 868 867 867 867 867 866 866 866 865 865 864 864 863 862 862 861 860 859 858 857 857 856 855
828 829 830 831 831 832 832 833 833 834 834 835 836 837 838 839 839 840 841 841 841 841 841 841 842 843 844 845 846 847 849 850 851 853 854 855 856 857 859 862 866 868 870 871 871 871 871 871 872 872 872 873 872 872 872 871 871 871 871 871 870 870 869 868 868 868 868 867 867 867 866 866 865 864 864 863 863 862 861 860 859 858 858 857 856
828 829 830 831 832 832 833 833 834 834 835 835 836 837 838 839 840 841 841 842 842 842 842 842 842 843 844 845 846 847 847 848 850 852 854 855 855 856 857 858 863 868 870 871 871 871 871 871 872 873 873 873 873 873 872 872 872 871 871 871 871 871 870 870 869 868 868 868 868 868 867 867 866 865 865 864 863 862 861 861 860 859 859 858 857
829 829 830 831 832 833 833 834 834 835 836 836 837 838 839 840 841 842 842 843 843 843 843 843 843 844 845 846 846 846 846 847 848 851 853 855 856 857 857 857 858 863 868 870 871 870 871 871 872 872 873 873 873 873 873 873 872 872 871 871 871 871 871 871 870 870 869 869 868 868 868 868 867 867 866 865 864 863 862 861 861 860 859 858 857
829 830 831 831 832 833 834 834 835 836 837 837 838 839 840 841 841 842 843 843 844 844 844 844 845 845 846 846 847 847 846 846 848 850 852 854 856 857 858 857 857 859 862 866 869 869 870 871 871 872 872 873 873 873 873 873 873 872 872 872 872 871 871 871 871 870 870 869 869 869 868 868 868 867 867 866 865 864 863 862 861 860 860 859 857
830 830 831 832 833 834 835 835 836 837 838 839 839 840 841 842 843 843 844 844 844 845 845 845 846 846 846 847 848 848 848 848 849 851 853 855 856 857 858 858 858 858 859 862 866 867 868 869 870 871 871 872 872 872 873 873 872 872 872 872 872 872 871 871 871 871 870 870 869 869 869 868 868 868 867 866 865 865 864 863 862 861 860 859 858
830 831 832 833 834 835 835 836 837 838 839 839 840 841 842 843 843 844 845 845 845 846 846 846 847 847 847 848 849 850 850 850 851 853 854 856 856 856 857 858 859 859 860 861 863 865 867 868 869 870 870 871 871 872 872 872 872 872 871 871 871 871 872 871 871 871 870 870 869 869 869 868 868 868 867 867 866 865 864 863 862 862 860 859 858
831 831 832 833 834 835 836 837 837 838 839 840 841 841 842 843 844 845 846 846 846 847 847 847 848 848 848 849 850 851 851 852 853 854 855 855 856 856 857 858 859 860 861 862 862 864 866 867 868 869 869 870 870 870 871 871 871 871 870 870 870 871 871 871 871 871 870 870 869 868 868 868 868 868 868 867 866 865 864 863 862 861 860 859 858
831 832 832 833 834 835 836 837 838 838 839 840 841 842 843 844 845 845 846 847 847 847 848 848 848 849 849 850 851 852 852 853 853 854 855 855 855 856 856 857 859 860 861 861 862 863 865 866 867 867 868 868 869 869 869 869 870 870 870 870 869 870 870 871 870 870 870 869 868 868 868 868 868 868 867 867 866 865 863 862 861 860 859 858 857
831 832 833 833 834 835 836 837 838 839 840 840 841 842 843 844 845 846 847 847 848 848 848 849 849 849 850 851 852 853 853 853 854 855 855 856 856 856 857 858 859 860 861 861 861 862 863 865 866 866 867 867 867 868 868 868 869 870 870 869 868 869 869 870 870 869 869 869 868 867 867 867 867 867 867 866 865 864 862 861 860 859 858 857 856
832 832 833 834 835 836 836 837 838 839 840 840 841 842 843 844 845 846 847 848 848 848 849 849 850 850 851 851 852 853 854 854 855 855 856 856 856 857 858 859 859 860 861 861 861 861 862 863 864 865 866 866 866 867 867 868 868 869 869 868 868 868 869 869 869 869 868 868 867 866 866 866 866 866 865 865 864 862 861 860 859 858 857 856 855
832 833 834 835 835 836 837 838 839 840 840 841 842 843 843 844 845 846 847 848 848 849 849 850 850 851 851 852 853 853 854 854 855 855 856 856 857 858 858 859 859 860 860 861 861 861 861 862 863 864 865 866 866 866 866 867 867 868 868 868 867 868 868 868 868 868 868 867 866 866 865 865 865 865 864 864 862 861 860 859 858 857 856 855 854
832 833 834 835 836 837 838 839 840 841 841 842 843 843 844 844 845 846 847 848 848 849 850 850 851 851 851 852 853 853 854 854 854 855 855 856 857 857 858 859 859 859 860 860 861 861 861 862 862 863 864 864 865 865 865 866 866 867 867 867 867 867 867 867 867 867 867 866 865 865 865 865 864 864 863 862 861 861 859 858 857 856 855 854 853
833 833 834 835 836 837 838 839 840 841 842 842 843 844 844 844 845 846 847 848 849 849 850 850 851 851 851 852 852 853 853 853 854 854 855 855 856 856 857 857 858 859 859 860 860 861 861 861 862 862 863 864 864 864 864 865 865 865 865 865 866 866 867 866 866 866 866 865 865 864 864 864 863 862 862 861 861 859 858 857 855 854 853 853 852
833 833 834 835 836 836 837 838 839 840 841 842 843 844 844 845 845 846 847 847 848 849 849 850 850 851 851 851 852 852 853 853 853 854 854 854 855 855 856 856 857 858 858 858 859 860 860 860 861 862 862 863 863 863 863 863 863 864 864 864 865 865 866 865 865 865 865 865 864 863 863 862 862 861 861 861 860 858 857 855 854 853 852 851 851
833 833 834 834 835 836 837 838 839 840 841 842 842 843 844 845 845 846 846 847 847 848 849 849 850 850 850 851 851 852 852 853 853 854 854 854 854 854 855 855 856 856 857 857 858 858 858 859 859 860 861 861 862 862 862 862 862 862 863 863 864 864 864 864 864 864 864 863 863 862 862 861 860 860 860 859 858 857 856 855 853 852 851 851 850
832 832 833 834 834 835 836 837 839 840 840 841 842 843 844 844 845 845 846 846 847 847 848 848 849 849 850 850 851 851 852 852 853 853 853 853 853 854 854 854 855 855 855 856 856 856 857 857 858 858 859 859 860 860 860 860 860 861 861 861 862 862 863 863 863 863 862 862 861 861 861 860 859 859 859 858 857 857 856 854 853 852 851 850 849
831 831 832 833 834 835 836 837 838 838 839 840 841 842 843 843 844 844 845 846 846 846 847 847 847 848 848 849 849 850 851 851 851 852 852 852 852 853 853 853 854 854 854 854 855 855 855 855 856 857 857 857 858 858 858 859 859 859 859 859 860 860 861 861 861 861 861 860 860 860 860 859 859 859 858 857 857 856 855 854 853 852 851 850 848
831 831 831 832 833 834 835 836 836 837 838 839 840 841 842 842 842 843 844 845 845 846 846 846 847 847 847 848 848 848 849 849 850 850 850 850 851 851 851 852 852 852 853 853 853 853 853 854 854 855 855 855 856 856 857 857 858 858 858 858 858 859 859 860 861 861 860 859 859 859 859 859 858 858 858 857 856 856 855 854 852 852 851 849 848
831 831 832 832 833 834 834 835 835 836 837 838 839 840 840 841 841 842 842 842 843 844 844 845 845 846 846 846 846 847 847 848 848 848 848 848 849 849 849 849 850 850 850 850 851 851 851 852 852 853 853 854 854 855 855 856 856 857 857 857 857 858 859 859 860 860 859 858 858 858 858 858 858 858 857 856 856 856 854 853 852 851 850 849 847
830 831 831 832 832 833 833 834 834 835 835 836 837 837 838 839 839 840 840 840 841 841 842 842 843 844 844 844 844 845 845 846 846 847 847 846 846 847 847 847 847 847 848 848 848 849 849 850 850 850 851 852 852 853 854 855 856 856 856 856 857 857 858 858 858 858 858 857 856 857 857 857 857 856 856 855 855 855 853 852 851 850 849 848 846
830 830 831 832 832 833 833 833 834 834 834 835 835 836 836 837 837 838 838 838 839 839 839 840 840 841 841 841 842 842 843 843 844 844 844 845 845 844 844 845 845 845 846 846 846 847 847 848 848 849 849 850 851 852 853 854 855 855 855 855 855 856 856 856 857 857 856 855 855 856 856 856 855 855 854 854 853 853 852 851 850 849 848 846 845
831 831 831 831 832 832 833 833 833 833 833 833 834 834 834 835 835 836 836 836 836 836 837 837 837 837 838 838 838 838 839 839 841 842 842 843 844 844 842 843 843 843 844 844 844 845 845 846 847 847 848 849 850 851 852 853 853 853 853 854 854 854 855 855 855 855 855 854 854 855 855 855 854 853 853 853 852 852 851 850 849 848 847 845 844
831 831 831 831 831 831 831 831 831 831 832 832 832 832 832 833 833 833 833 832 833 833 834 834 834 835 835 835 834 835 835 836 837 838 839 840 842 842 841 841 842 842 842 842 842 843 843 844 845 846 847 848 849 850 850 851 851 851 852 852 853 853 853 853 853 854 854 854 854 854 854 853 853 852 852 851 851 850 850 849 848 847 846 844 842
831 831 831 830 830 830 829 829 829 829 829 830 830 830 830 830 830 830 830 830 830 831 832 832 832 832 832 832 832 832 833 833 834 835 836 837 838 839 839 840 840 839 840 842 842 841 842 843 844 844 846 847 848 848 849 849 850 850 851 851 851 851 851 851 852 853 853 853 852 852 852 852 852 852 851 850 849 849 848 848 846 845 844 842 840
829 829 829 828 828 828 827 827 827 827 827 827 828 828 828 828 827 827 827 827 827 828 829 829 829 828 828 829 829 829 829 830 831 832 833 834 834 835 836 836 837 837 839 841 841 840 840 842 843 844 845 845 846 847 848 848 849 850 850 850 850 850 850 851 851 852 852 852 851 851 851 851 851 851 850 849 848 847 846 846 845 843 842 840 839
Wind_Speed
13 12 10 10 9 8 7 6 6 5 4 4 3 2 3 3 3 1 2 2 2 1 2 5 5 6 6 7 11 12 10 10 10 10 11 12 12 11 11 12 13 12 10 9 9 8 8 7 5 4 5 6 7 8 9 9 10 9 9 9 9 8 7 6 6 7 7 7 7 7 7 8 8 8 8 8 7 7 8 8 8 9 10 11 9
13 10 9 9 8 8 7 5 5 5 3 2 2 2 2 3 2 0 1 1 1 1 5 9 9 9 9 9 12 12 11 10 9 9 10 11 12 11 10 11 12 11 9 9 8 8 8 7 6 5 5 5 6 7 8 9 9 9 8 7 8 7 7 6 6 6 6 6 6 7 7 7 6 7 7 7 7 8 7 7 8 8 10 11 9
11 10 10 9 9 9 9 8 6 7 6 5 4 4 4 3 2 1 0 1 3 5 8 11 10 9 11 12 13 13 11 11 10 9 10 11 11 10 10 10 11 10 10 10 8 8 7 6 6 6 5 4 5 5 6 7 8 7 6 6 5 5 6 6 6 5 5 5 6 6 6 6 6 6 6 6 7 7 7 7 8 9 9 10 9
9 10 11 9 10 10 10 9 7 8 8 6 6 5 5 4 3 3 2 4 5 7 11 12 11 13 15 14 13 13 12 12 11 10 10 10 10 10 10 9 9 9 9 10 9 8 6 4 5 7 5 3 3 4 5 6 7 7 6 5 5 4 4 4 5 4 3 4 5 6 6 5 5 5 4 4 5 6 6 6 7 8 8 8 8
8 9 10 9 9 10 9 8 7 7 7 6 5 5 5 5 4 4 4 6 7 9 12 13 14 15 15 14 13 12 12 12 13 12 10 10 10 10 10 9 8 7 6 8 9 9 7 4 5 7 6 3 3 4 5 5 6 6 5 5 5 5 5 4 3 4 4 4 4 5 5 5 5 5 5 4 4 4 5 5 6 6 6 6 8
7 8 10 9 10 10 9 8 6 6 7 7 5 5 5 6 7 6 7 8 8 11 13 14 14 14 13 13 13 12 12 14 14 11 11 11 11 10 10 9 8 7 6 6 8 8 8 7 6 7 6 4 3 3 3 3 3 3 3 3 4 4 4 4 3 4 5 4 3 4 4 3 4 4 4 4 4 4 3 4 4 5 4 5 6
7 7 9 10 10 10 9 7 5 5 6 7 6 5 5 7 9 9 10 10 11 14 14 13 13 13 13 13 13 13 14 15 12 9 9 10 11 10 9 9 8 8 8 8 9 8 8 7 6 6 5 5 4 3 2 2 0 2 2 2 3 3 3 3 4 5 4 3 4 4 4 3 3 3 3 3 3 4 3 3 3 3 4 4 4
8 7 8 9 9 9 8 6 5 5 6 7 7 5 5 8 8 9 12 14 16 17 16 16 16 15 15 14 14 15 15 14 9 8 8 8 9 9 9 8 8 9 9 9 9 8 8 7 5 5 6 6 5 4 4 4 3 3 4 4 4 3 3 4 5 6 5 4 4 4 4 4 3 3 4 4 2 2 2 2 2 2 2 3 3
8 8 8 8 9 8 7 6 5 5 6 8 8 6 7 8 9 11 14 18 19 20 19 18 18 17 16 14 14 14 14 12 7 6 7 7 7 9 9 9 8 9 9 9 8 7 7 6 5 5 6 6 5 5 3 2 3 3 3 3 3 3 4 4 4 5 5 5 4 5 5 5 4 3 4 5 5 3 1 1 1 1 1 2 3
8 8 8 8 9 8 7 6 6 6 7 9 9 9 8 9 12 14 16 19 20 20 20 18 19 17 15 13 12 13 12 10 6 5 5 5 5 6 7 7 8 8 8 7 6 6 5 4 4 4 5 5 5 5 3 3 3 3 3 2 2 2 3 4 5 5 4 3 3 4 5 6 5 4 4 5 6 6 4 1 0 0 1 0 1
8 8 8 8 8 8 7 6 6 7 8 9 10 10 9 10 13 15 16 17 18 19 19 18 18 17 15 14 12 13 12 9 6 6 6 6 5 5 5 7 8 8 7 6 6 4 4 4 4 4 4 4 5 5 5 4 4 3 4 3 2 2 2 4 6 7 7 6 5 3 2 4 5 4 5 6 7 7 7 5 3 1 1 2 2
7 8 8 8 8 7 7 7 7 8 9 9 10 9 10 11 13 15 17 17 16 17 18 18 18 17 15 14 12 12 12 9 8 7 7 7 6 7 7 7 7 7 7 6 5 5 5 5 3 2 2 2 2 3 3 4 4 4 5 5 4 4 3 4 6 7 7 8 8 7 6 4 1 3 3 5 6 7 7 7 6 3 2 3 4
8 8 8 8 8 7 7 8 8 9 9 10 10 9 10 12 14 15 16 17 16 15 16 18 17 15 14 13 12 11 11 10 8 5 5 6 7 9 9 7 6 6 7 7 6 5 6 5 3 2 1 1 2 2 3 3 4 4 5 4 4 5 4 4 5 6 6 7 10 10 9 7 5 3 3 3 5 6 5 5 6 5 3 4 4
8 8 8 8 9 9 9 9 10 10 10 11 11 11 12 12 14 15 15 15 16 16 17 15 12 12 12 11 9 8 9 10 8 5 6 8 8 9 9 8 7 7 8 7 6 4 4 4 3 3 1 1 2 4 5 6 7 8 7 6 4 4 5 5 5 5 5 6 7 8 7 5 6 6 5 3 4 5 4 4 5 5 4 4 4
7 7 7 7 9 10 10 10 11 12 12 12 11 11 13 13 14 16 15 15 15 17 16 11 10 13 12 6 3 4 5 6 9 8 7 9 10 10 9 9 9 9 9 7 5 5 5 4 3 3 2 2 4 5 6 7 8 8 7 7 6 5 6 5 4 4 4 5 6 6 5 4 5 6 6 6 7 6 5 5 6 6 5 4 4
6 6 6 7 8 10 11 11 12 12 12 13 13 12 13 13 14 15 16 16 14 15 14 10 14 15 8 3 2 3 2 3 8 8 7 9 10 10 9 9 10 10 9 8 7 7 6 5 4 4 4 4 6 6 7 7 7 7 8 9 8 8 7 7 7 7 6 6 7 8 7 6 4 3 3 5 6 6 7 8 7 7 6 6 6
7 7 6 6 7 8 9 10 10 11 10 11 13 13 13 14 15 15 16 16 14 15 12 10 14 13 6 5 3 1 2 4 7 8 7 10 11 11 10 10 11 11 11 11 11 10 8 8 7 6 6 6 6 6 7 7 7 8 10 11 11 11 10 10 11 11 11 11 11 11 11 11 10 8 6 5 5 4 3 7 9 9 8 8 8
9 9 8 7 7 7 7 8 8 9 9 10 12 13 13 14 15 14 14 15 15 16 14 11 13 10 7 7 3 2 6 7 5 4 6 9 11 12 9 10 11 11 13 15 14 13 11 10 9 8 7 7 6 6 7 8 9 10 11 11 12 12 12 12 14 15 15 15 15 15 14 14 13 12 11 10 9 8 6 2 4 7 10 10 10
12 11 10 9 8 7 7 8 7 8 10 11 12 12 13 13 13 12 12 13 16 17 16 14 13 10 7 5 2 5 11 10 7 4 4 5 9 14 11 9 11 12 15 17 15 13 11 11 9 8 7 7 8 8 9 10 12 13 13 13 12 13 13 13 14 16 17 16 16 15 16 17 17 16 15 14 13 12 12 9 6 4 6 8 11
13 12 10 9 8 7 6 6 7 9 11 11 12 11 12 12 11 10 10 11 14 16 17 16 14 11 8 5 2 7 12 12 13 12 7 3 6 10 10 11 11 13 16 16 13 11 10 10 8 7 8 9 9 10 11 13 14 15 15 15 15 15 15 16 15 16 17 18 17 17 18 19 19 18 18 18 18 17 16 15 13 10 8 6 6
12 11 10 9 8 7 6 5 6 8 10 12 12 11 11 11 10 10 9 11 12 12 14 17 16 14 11 7 6 11 12 12 16 16 11 6 4 4 8 12 11 12 16 15 12 10 10 10 8 8 9 9 10 10 11 13 14 16 16 16 16 17 17 18 18 18 19 20 19 19 19 20 20 20 20 19 18 18 18 18 17 16 14 13 11
12 11 11 10 9 8 5 4 6 8 9 11 12 11 11 10 9 9 9 10 11 10 11 14 16 15 14 11 10 13 13 10 12 14 12 8 5 5 10 13 10 11 16 15 12 12 12 10 8 9 9 9 10 10 11 13 14 15 15 16 16 17 18 18 19 19 19 20 20 19 19 19 20 20 20 19 19 18 18 18 18 17 16 16 14
13 12 10 10 9 8 5 4 8 11 9 8 10 11 11 10 9 9 10 10 10 10 9 11 15 14 14 14 14 16 15 12 14 16 12 9 7 6 9 13 12 12 15 16 14 14 12 9 9 9 9 9 10 10 12 13 14 14 14 15 16 17 18 18 19 19 19 19 19 19 18 18 18 18 18 18 17 17 17 16 16 16 16 15 15
13 12 10 9 8 9 8 7 10 12 10 8 8 9 10 10 10 10 11 11 10 9 9 11 14 14 15 15 15 17 17 15 17 17 14 17 16 9 9 13 11 11 16 17 15 14 12 9 8 9 9 10 10 11 12 13 13 14 14 16 18 19 20 20 20 21 21 21 20 20 20 19 18 18 17 17 17 16 16 15 14 14 14 14 13
10 10 9 9 9 9 11 11 12 11 10 8 8 10 11 12 12 11 12 12 10 10 10 10 12 13 15 16 16 17 14 14 17 15 15 22 22 13 10 11 8 11 15 16 14 12 10 8 8 8 9 10 10 11 13 14 13 14 16 18 19 20 21 21 22 22 23 23 22 22 21 20 19 18 18 17 17 16 16 15 14 14 13 13 12
9 10 10 11 10 10 11 11 11 10 8 8 8 10 12 13 13 12 12 12 11 11 10 9 11 13 14 14 14 16 14 12 14 15 18 23 23 17 12 7 8 13 12 12 13 11 8 8 7 7 8 9 9 10 12 13 14 15 16 18 19 19 20 20 21 22 23 23 23 23 23 21 19 18 18 18 17 17 16 15 15 14 14 13 12
10 10 11 12 11 10 10 10 9 9 10 10 10 11 12 13 13 12 12 12 12 12 10 10 11 12 13 12 11 14 15 14 15 17 20 23 24 25 19 10 6 8 7 8 9 7 9 11 7 6 6 6 7 9 10 12 14 14 14 15 16 17 17 18 18 19 20 21 21 21 23 23 20 18 19 19 19 18 18 17 16 15 15 15 15
12 11 10 10 9 8 9 9 8 9 11 12 11 11 12 13 13 13 13 12 12 12 11 11 13 14 13 12 11 12 15 16 18 20 21 23 25 26 26 21 12 4 4 5 3 5 11 12 8 6 5 4 5 7 8 10 11 12 12 12 13 14 15 15 15 16 17 18 18 18 20 22 21 18 19 21 22 22 20 19 18 17 16 17 17
13 12 11 10 10 9 9 9 9 11 13 13 13 13 14 15 15 15 15 14 14 14 14 15 17 17 17 15 13 11 12 16 20 22 22 23 25 25 27 29 23 11 4 3 3 6 12 11 8 8 7 4 4 5 7 8 9 10 11 11 11 12 12 13 13 14 15 15 16 15 16 19 19 18 19 21 24 25 24 21 20 19 18 19 19
13 11 11 11 11 11 10 10 11 14 15 15 15 16 16 16 17 16 16 16 16 16 16 17 18 18 17 16 16 16 15 15 19 23 25 24 23 24 26 28 28 20 11 7 4 8 13 13 9 9 10 8 5 4 6 7 7 8 8 9 9 9 10 10 11 12 13 13 14 13 13 15 16 17 18 19 21 24 25 23 20 19 19 20 21
12 12 12 12 12 12 12 13 14 15 15 15 15 15 15 15 15 16 16 16 16 16 16 16 16 16 17 16 16 18 19 19 18 21 23 21 21 25 26 25 26 25 21 14 6 7 14 14 11 11 11 9 7 5 6 6 6 6 6 6 6 6 6 7 8 9 10 11 12 12 12 13 13 14 16 17 18 20 23 24 22 19 18 18 19
13 14 13 13 13 12 12 13 14 14 14 13 13 14 14 14 14 15 15 15 16 16 16 14 13 14 16 16 17 18 20 21 21 20 18 16 16 21 26 26 23 22 22 18 10 9 13 14 13 12 11 9 9 7 6 6 5 5 4 4 3 4 4 5 6 6 7 9 10 10 10 11 11 12 14 14 15 17 19 23 24 21 17 16 15
15 14 13 13 13 12 12 12 13 13 12 12 13 14 15 14 14 15 15 15 16 16 15 13 13 14 15 15 16 17 18 18 18 17 15 13 11 12 19 25 23 21 21 18 15 12 11 12 14 12 11 10 10 9 8 5 4 4 4 4 3 2 2 4 4 4 5 7 9 9 9 9 9 10 12 12 13 15 17 21 25 22 17 15 14
14 13 12 12 12 13 13 13 12 12 12 12 12 14 15 15 15 15 15 16 16 15 15 14 14 15 16 16 15 14 15 15 14 12 11 10 10 10 13 20 23 21 19 17 17 15 12 14 16 14 12 12 10 10 9 6 4 4 4 5 4 3 2 3 4 4 5 6 8 9 9 8 8 9 11 12 14 17 19 22 24 21 16 15 13
14 14 13 12 12 13 13 13 12 11 11 11 12 14 14 14 15 16 16 16 16 16 17 16 14 14 15 16 14 12 13 13 11 10 10 10 10 11 13 17 19 19 16 15 16 16 16 16 16 15 14 12 11 11 9 8 7 5 4 4 4 5 6 5 4 4 6 6 8 9 10 8 8 9 11 15 19 21 22 21 19 17 16 14 12
15 14 13 12 12 13 14 13 12 11 11 12 13 13 13 13 15 17 17 17 16 17 18 17 15 14 15 15 13 12 12 13 11 10 10 11 12 13 14 14 15 15 15 14 14 16 18 18 16 16 15 12 10 10 9 9 9 5 3 3 5 9 8 6 4 4 5 5 7 9 9 8 7 9 13 19 22 22 20 17 15 16 16 14 12
14 15 14 13 13 13 13 13 13 12 11 11 12 12 13 13 15 17 17 16 16 16 17 17 16 16 15 15 14 12 12 13 12 10 10 11 14 15 14 13 14 14 15 15 14 14 17 18 17 16 15 12 10 10 10 11 10 6 4 4 7 9 7 5 4 3 3 5 6 7 7 6 7 11 17 20 20 18 15 14 14 16 16 15 13
13 14 14 14 13 14 13 13 14 12 10 11 12 12 12 14 16 16 16 16 17 17 17 17 17 16 15 15 15 14 14 14 14 12 11 12 15 16 14 13 14 15 16 16 13 12 15 16 15 15 15 13 11 10 11 12 12 10 9 8 8 7 6 5 3 2 3 4 5 6 5 6 10 14 18 18 16 15 14 13 14 15 15 17 17
12 11 13 13 12 14 15 15 15 13 11 12 13 13 11 14 18 19 17 18 18 18 17 17 16 16 15 16 16 16 16 16 15 15 13 13 15 15 14 14 15 15 16 15 12 10 12 14 14 14 14 14 12 12 11 12 13 13 13 12 10 8 6 4 2 2 3 2 2 3 6 10 13 16 16 15 14 14 13 12 13 14 15 16 16
9 9 13 12 10 14 16 16 16 15 13 12 14 15 13 14 19 21 20 19 18 18 18 17 16 15 16 16 17 17 17 17 16 15 14 14 15 15 15 15 15 15 15 14 12 11 11 13 15 14 13 14 14 12 11 12 14 14 14 12 10 8 5 3 2 3 2 1 4 7 11 14 15 15 14 13 12 12 12 11 11 13 14 13 12
4 8 14 12 10 13 15 15 17 16 14 14 15 17 16 16 18 20 20 20 18 17 19 19 18 16 16 17 16 16 16 16 16 15 14 15 15 15 16 16 15 15 14 14 13 12 11 12 13 12 11 11 11 10 11 14 15 14 13 11 9 8 5 3 2 1 2 6 10 13 14 15 15 14 12 11 11 10 11 11 11 12 12 11 11
4 7 13 14 12 13 13 14 17 17 16 15 15 17 18 18 18 19 21 21 19 17 19 21 21 19 18 18 17 17 16 16 17 16 15 15 14 14 15 16 17 16 14 14 13 12 12 12 11 10 9 8 8 8 9 12 13 12 11 10 8 6 3 1 1 2 6 10 13 16 15 14 13 12 9 8 9 9 11 13 13 13 13 13 13
3 5 11 14 13 13 14 15 17 18 18 17 17 17 19 20 20 21 22 22 21 20 20 22 22 22 22 21 20 20 20 19 19 19 18 17 15 15 14 15 16 16 15 15 15 14 13 12 11 11 10 9 9 8 8 10 11 11 10 8 6 3 1 2 3 5 9 11 13 14 14 11 8 6 5 6 8 10 13 14 14 15 15 15 15
4 4 7 8 8 10 13 15 16 17 18 19 19 20 20 21 22 23 23 23 23 23 23 22 22 22 23 22 21 22 22 22 21 21 20 19 18 17 16 16 16 16 16 16 16 16 15 14 13 12 12 10 9 10 10 11 12 10 8 5 3 0 2 3 4 6 9 10 9 10 9 7 6 5 5 7 9 12 15 15 15 16 16 15 15
2 1 2 3 4 5 8 10 12 13 14 16 18 21 23 23 23 24 25 25 26 25 26 25 24 24 24 24 23 23 23 22 22 22 22 22 21 20 19 19 19 18 17 17 17 17 17 17 17 16 15 13 12 12 13 12 11 9 6 3 1 1 2 3 3 5 7 8 8 8 6 5 6 7 7 9 11 14 15 15 16 18 17 16 14
2 3 3 3 5 6 7 8 9 10 11 12 13 16 20 24 26 27 26 27 28 28 28 28 27 27 27 27 26 25 24 23 22 22 23 24 23 22 22 22 21 19 19 19 18 18 17 18 18 18 16 14 13 13 13 11 9 7 4 3 1 1 1 2 2 4 5 6 8 8 5 4 7 8 9 11 13 15 15 16 18 18 17 15 14
4 4 4 4 5 8 10 11 12 12 12 12 12 12 14 19 25 28 30 30 31 31 31 31 30 30 29 29 28 26 26 24 23 21 21 22 22 22 22 21 20 19 19 19 18 18 17 16 16 16 15 13 12 12 12 10 7 5 3 2 1 1 2 2 3 3 4 5 7 7 4 5 8 10 11 13 15 16 16 17 18 17 15 15 17
7 5 4 4 6 7 9 10 12 13 13 14 15 15 15 16 19 23 28 31 31 31 31 32 32 32 31 31 30 30 28 26 23 21 20 20 20 21 20 17 16 17 17 16 16 16 15 15 15 14 13 13 12 11 9 6 4 3 2 2 4 4 3 3 3 3 5 6 6 6 5 6 9 12 14 15 17 17 16 15 14 13 15 18 21
9 9 8 7 7 8 8 9 10 12 13 14 15 17 17 18 19 20 24 27 29 29 29 31 31 32 32 31 30 28 27 25 24 22 21 20 20 20 17 15 16 17 16 14 14 14 14 13 13 13 13 13 11 8 6 4 3 3 3 5 5 3 1 3 3 4 5 4 4 5 7 8 10 13 14 15 16 15 12 11 11 14 18 20 20
12 12 12 11 10 10 10 9 10 12 13 14 15 16 17 18 20 22 23 25 26 28 28 29 30 31 31 31 30 27 26 26 26 23 22 23 23 20 18 19 19 18 16 14 14 14 14 14 14 14 13 11 8 6 5 4 4 5 4 4 3 2 1 3 2 2 2 2 4 8 10 9 10 12 14 14 14 11 8 10 13 18 20 18 18
14 14 14 14 13 13 13 13 13 13 14 14 15 17 17 18 19 21 23 24 25 27 28 30 32 32 31 31 30 29 28 28 28 25 24 27 25 21 20 22 22 19 17 17 17 17 18 18 16 14 12 10 8 7 7 6 5 4 2 2 2 2 2 2 1 1 1 2 6 11 11 9 10 12 12 11 9 6 7 11 16 19 18 17 18
Wind_Direction
175 169 163 158 157 158 154 150 149 145 135 134 137 139 159 155 143 104 27 350 335 304 181 169 152 137 153 163 166 166 152 142 139 140 144 144 142 142 140 133 134 137 137 138 131 129 128 125 139 132 106 92 95 105 108 110 107 101 99 96 95 94 98 104 102 99 99 99 99 99 101 100 100 100 94 90 87 88 86 85 92 98 96 85 77
179 177 175 169 169 170 166 166 178 185 187 195 194 205 205 187 178 92 4 347 51 144 163 162 156 144 152 165 165 159 146 139 137 140 145 148 150 151 152 143 139 142 143 144 140 140 134 121 134 145 131 110 100 104 106 105 102 98 93 92 91 91 92 99 105 104 104 106 103 99 101 100 99 101 102 99 90 86 84 81 91 102 99 88 80
184 184 182 180 183 184 184 186 196 204 211 227 232 242 232 215 213 154 123 183 146 152 171 169 159 152 160 166 163 157 145 135 129 135 145 151 155 156 159 154 150 154 154 153 144 140 139 116 122 149 157 133 107 118 120 106 104 100 91 89 82 81 86 87 88 94 113 116 109 104 102 103 99 100 105 105 99 93 87 78 86 101 99 88 83
186 186 183 185 191 196 201 203 204 204 208 221 229 237 233 216 186 153 150 174 158 158 174 172 155 150 159 165 166 161 148 134 127 133 145 150 154 156 159 162 164 168 167 164 152 143 148 112 105 136 154 147 112 128 133 107 105 104 93 90 78 70 78 82 68 61 100 123 119 112 105 102 95 95 98 101 109 104 99 90 85 94 98 93 89
183 183 184 187 192 196 204 204 199 197 202 206 211 222 225 215 187 163 162 172 167 161 166 167 160 153 153 161 168 165 153 139 130 132 145 151 152 153 157 167 169 169 170 172 159 145 151 145 124 135 142 145 122 130 134 102 97 103 92 82 71 67 72 82 72 52 73 102 128 127 111 104 96 98 100 102 115 115 114 107 94 92 95 104 104
181 180 181 181 183 187 187 182 179 186 192 193 197 203 206 208 194 166 158 167 162 158 159 158 156 150 149 160 163 161 155 138 130 142 161 156 150 155 159 164 163 153 152 161 162 152 153 158 150 152 153 155 145 128 134 90 68 75 71 62 45 39 47 65 66 56 69 74 96 124 115 106 102 103 105 111 120 122 130 120 111 107 97 105 113
183 179 178 178 176 177 175 168 168 177 184 183 185 195 197 196 186 162 152 155 149 148 155 153 146 145 155 163 159 158 148 132 137 169 176 156 151 161 160 159 159 151 148 152 163 165 164 168 167 172 173 175 178 167 171 180 206 327 325 323 341 353 9 28 38 39 56 66 72 90 92 94 101 95 84 95 124 131 135 145 142 124 104 101 108
188 178 175 180 178 174 171 170 174 173 176 174 172 187 191 175 168 163 155 149 146 144 148 149 145 146 152 153 152 153 141 134 158 187 174 159 158 166 162 157 160 158 155 155 163 170 175 184 188 188 190 192 194 195 208 219 217 248 273 284 299 302 330 -0 20 29 33 38 52 69 76 72 74 86 70 53 75 126 144 162 158 139 125 107 96
194 181 179 185 184 178 172 176 182 175 169 167 167 174 178 163 150 159 158 148 146 143 142 145 144 143 143 140 140 143 140 142 159 173 174 176 169 169 168 165 167 162 157 157 162 168 176 187 194 197 203 213 225 232 246 270 258 256 263 279 305 297 292 316 348 13 19 21 27 36 49 48 45 61 55 38 38 33 14 190 155 125 168 123 116
203 192 191 191 190 185 181 182 182 179 171 166 165 163 168 168 152 153 156 150 147 143 139 140 138 136 133 131 132 132 138 143 138 147 163 162 161 170 172 173 174 167 158 157 158 164 176 189 203 213 218 226 245 262 291 327 297 295 307 287 306 320 284 274 287 305 319 337 358 13 29 30 26 24 18 25 31 24 23 30 193 122 314 294 172
205 203 203 200 197 191 189 189 182 181 177 170 168 162 166 175 160 151 150 149 149 145 139 137 134 132 129 126 127 128 136 141 126 129 133 129 139 152 155 159 167 171 168 167 165 169 187 198 213 229 234 240 257 271 283 307 310 322 343 336 318 314 283 258 260 265 271 277 276 274 326 12 22 14 359 8 17 19 26 30 25 14 310 334 327
194 200 206 205 203 202 201 197 189 185 180 176 172 167 169 173 163 152 147 143 145 144 140 138 131 125 124 124 124 124 131 133 126 129 125 122 128 132 138 141 149 163 165 169 178 191 203 211 227 225 225 258 286 294 293 308 318 324 339 348 341 322 298 270 269 272 273 274 266 252 245 252 336 10 352 352 359 5 15 23 27 24 323 335 342
187 195 200 201 198 200 201 194 188 181 176 173 169 166 166 165 159 152 149 144 144 145 143 140 129 118 116 116 116 117 123 129 133 143 133 124 126 128 135 135 129 142 149 154 166 187 205 213 212 172 133 356 -0 20 23 19 18 11 2 3 352 340 339 324 313 311 298 283 270 256 245 236 240 270 293 325 338 339 352 9 14 14 353 340 345
184 191 193 194 189 188 190 186 180 171 163 164 166 166 164 164 160 153 150 146 146 150 150 144 132 126 122 111 101 100 113 124 122 132 140 130 127 128 127 123 109 110 129 141 150 166 174 175 176 162 131 48 43 33 31 31 31 31 29 31 21 10 16 3 345 334 314 304 299 288 277 265 257 258 265 281 288 292 304 331 343 351 354 347 342
178 185 189 187 186 187 183 178 178 172 164 166 173 172 165 166 167 162 155 148 148 155 159 155 144 136 123 110 101 88 94 105 97 105 142 140 130 130 122 112 106 102 111 118 127 140 136 138 157 151 119 67 45 26 21 24 27 30 36 41 39 44 46 25 11 3 344 345 357 357 347 322 288 267 260 254 248 256 271 291 315 322 326 331 326
167 170 179 177 179 188 183 174 176 177 172 173 181 180 172 172 174 173 167 158 154 160 168 167 156 148 121 93 110 90 96 109 84 85 138 154 139 132 125 114 111 105 101 102 114 130 133 140 148 126 91 50 27 17 18 27 36 45 51 55 57 65 68 49 38 38 34 30 26 31 42 38 18 340 295 269 261 258 249 252 273 291 298 305 303
150 152 162 166 168 180 182 176 176 181 181 182 186 183 179 182 181 183 184 177 170 167 174 174 165 164 146 128 109 73 202 151 95 74 115 155 155 138 123 114 111 101 94 98 111 122 127 133 127 101 76 46 27 26 37 48 58 64 65 65 65 70 75 66 57 54 56 57 50 52 62 62 57 48 38 24 359 339 278 244 244 257 273 287 294
131 136 140 145 151 157 163 168 176 185 185 184 187 182 181 186 185 187 193 193 186 176 175 176 174 174 160 154 145 178 178 145 112 72 94 134 153 146 127 115 113 103 99 103 113 120 121 119 111 97 77 53 46 52 61 70 72 74 73 73 72 73 76 73 69 66 66 68 65 65 69 67 66 62 58 56 44 36 30 353 253 256 261 267 276
113 116 119 119 126 132 140 152 163 177 182 183 186 184 183 185 184 189 193 195 193 185 182 180 178 177 165 162 169 167 163 148 140 139 97 98 131 140 142 134 124 113 111 115 118 120 118 113 103 92 74 58 62 72 78 80 79 80 79 79 79 78 79 77 75 77 77 77 75 73 72 69 69 68 66 63 58 56 53 46 32 333 283 271 274
109 108 109 105 109 115 124 145 162 174 182 187 187 186 189 189 185 191 195 198 199 195 193 189 185 182 167 157 164 154 153 149 142 133 121 87 107 130 146 149 139 125 123 125 126 120 110 108 98 82 72 69 75 81 85 85 84 84 82 81 82 80 81 80 78 82 84 82 78 75 72 69 68 67 65 62 58 57 56 53 50 42 33 18 346
125 119 113 107 108 111 115 137 162 176 183 186 187 185 189 190 187 191 198 199 200 202 204 199 195 192 180 167 159 145 139 143 141 129 123 127 121 133 145 143 138 133 134 132 131 127 114 108 95 78 77 80 85 88 88 88 86 85 84 83 83 81 81 80 78 79 80 79 77 73 70 67 66 64 63 62 59 58 54 52 54 53 51 47 42
138 131 123 116 113 113 115 138 157 165 172 179 185 187 186 183 181 185 189 189 188 192 206 205 200 198 192 179 164 151 139 139 145 136 125 122 131 152 149 141 126 127 141 143 139 136 125 115 95 79 83 89 93 94 91 89 86 85 85 84 84 82 80 79 77 75 75 74 73 70 68 65 62 59 59 58 57 57 53 51 52 51 51 48 47
135 135 133 131 127 123 120 143 160 161 160 166 175 181 184 183 180 179 178 179 178 179 195 204 200 200 198 191 180 171 163 160 160 151 141 131 132 145 148 140 120 118 141 148 143 141 132 119 97 82 88 96 97 97 92 89 86 85 85 84 83 81 79 78 76 73 72 71 69 67 65 62 59 55 53 52 51 52 50 48 46 44 44 44 44
133 136 137 139 136 133 129 135 150 154 153 155 160 170 182 186 180 174 172 172 173 176 183 192 195 195 197 197 192 184 177 172 167 163 162 154 147 145 144 139 118 115 144 148 142 142 135 116 94 85 93 101 103 99 94 90 88 87 88 87 85 82 80 77 76 73 69 67 65 63 62 59 58 55 52 50 48 47 46 43 41 39 36 34 33
135 136 135 138 138 135 132 131 137 145 153 158 157 163 176 183 176 167 167 168 172 180 185 190 195 193 190 193 194 189 181 172 171 172 167 155 147 142 144 145 130 125 144 151 144 141 134 115 95 90 96 101 105 102 94 91 92 94 93 90 87 84 81 78 76 72 67 62 59 57 55 53 52 52 51 49 47 45 44 42 39 37 34 30 26
139 136 134 140 141 134 132 132 136 146 158 163 156 156 168 173 168 164 166 170 172 177 182 182 184 186 186 190 195 192 184 179 181 175 163 156 151 147 142 132 129 133 142 156 154 148 143 131 109 97 97 99 105 104 96 91 95 102 97 91 87 83 81 78 76 72 65 58 55 52 48 45 44 45 44 42 40 38 37 37 36 34 33 31 28
144 137 136 142 139 134 135 132 134 146 156 158 151 148 159 164 164 163 165 167 168 169 171 166 167 175 181 185 188 192 196 200 198 185 171 164 160 158 154 134 117 130 134 152 163 162 156 150 132 115 109 97 98 102 100 96 98 105 100 90 87 83 79 76 74 71 64 55 51 48 44 42 41 43 42 38 35 32 30 29 29 30 31 29 28
150 144 142 145 141 143 146 136 130 140 148 154 153 150 157 159 160 160 156 159 161 159 159 156 154 156 156 156 163 180 195 197 193 189 182 174 170 168 163 152 144 132 117 141 166 165 161 159 151 151 144 113 103 102 105 103 101 107 104 92 87 82 78 73 70 68 62 53 49 46 43 42 43 44 43 39 36 32 29 28 27 30 31 28 24
155 151 149 147 142 147 148 138 136 140 142 149 152 152 155 154 153 151 147 150 151 146 146 143 140 140 135 127 127 145 169 178 179 183 183 179 177 176 170 161 156 150 133 157 178 174 177 176 168 168 170 157 125 107 111 112 105 107 108 101 92 86 79 72 68 66 60 52 47 44 43 44 44 42 38 35 34 33 30 27 28 30 30 26 23
160 159 157 152 148 146 138 133 142 146 144 146 147 147 150 149 148 147 147 149 148 143 143 139 135 136 132 121 113 117 131 151 168 179 183 183 182 180 176 170 167 165 159 156 177 189 187 187 183 177 174 168 150 114 115 120 117 113 115 112 103 93 85 76 72 68 60 52 45 42 44 47 45 39 34 32 31 31 29 25 23 22 21 20 20
166 164 160 157 154 150 139 135 145 151 150 149 150 151 152 152 151 149 151 153 149 144 144 142 140 139 135 124 115 115 118 125 143 165 176 182 188 189 187 181 178 178 170 155 155 190 188 192 194 181 170 164 161 144 123 124 133 132 128 128 119 106 93 80 76 73 61 52 45 41 44 48 46 40 34 31 29 28 26 22 16 11 8 9 12
161 158 159 160 161 161 153 145 147 153 154 155 156 159 160 159 158 156 155 154 148 143 143 143 144 145 140 127 118 121 123 122 129 141 150 159 176 190 195 193 187 184 176 160 147 169 184 193 192 179 173 172 175 175 151 134 149 162 160 160 157 134 100 77 76 77 64 52 44 40 43 48 48 40 31 27 25 22 18 13 8 3 358 357 360
158 159 161 164 166 168 163 158 158 158 159 158 157 162 162 159 160 158 154 152 148 145 145 145 147 149 147 137 125 124 127 125 127 132 137 141 146 163 188 195 187 179 177 164 146 151 172 184 185 182 184 189 193 196 187 168 166 182 195 205 207 183 111 83 87 89 70 55 48 44 45 48 48 37 26 21 17 12 6 1 357 354 352 350 347
162 164 164 165 168 169 164 160 161 162 164 166 164 166 165 162 163 160 155 153 150 150 151 148 145 146 147 144 136 132 133 130 127 128 133 142 142 138 165 184 181 177 181 172 154 152 162 173 181 187 192 202 209 208 206 207 203 209 232 243 241 218 160 127 115 100 72 57 53 50 48 51 47 35 24 16 7 360 353 349 349 351 351 349 344
160 161 158 158 162 168 168 163 162 165 169 171 171 173 173 172 172 168 163 159 154 154 155 151 148 149 147 144 140 141 144 138 133 138 145 151 154 150 156 170 176 180 188 185 171 166 169 175 184 189 195 207 216 214 215 226 230 229 242 254 231 186 163 145 124 91 64 57 57 52 49 50 45 30 15 3 354 348 345 346 351 355 355 353 347
163 164 161 160 159 163 169 170 170 172 172 171 173 175 176 175 174 172 168 164 160 159 159 157 157 157 156 151 146 148 151 144 138 145 155 161 165 164 163 168 176 183 190 191 186 180 178 181 188 192 195 205 217 219 216 225 234 234 232 223 177 163 158 142 115 78 60 63 64 58 51 47 37 14 358 349 345 343 345 352 357 356 354 355 352
168 171 170 168 167 169 173 175 177 177 175 176 179 180 180 177 174 173 173 172 171 170 169 170 169 167 166 165 160 161 160 153 149 149 153 162 167 168 169 173 178 183 187 189 190 188 185 186 189 194 199 205 218 225 219 220 226 214 190 186 162 154 152 140 120 81 82 90 77 66 52 35 12 353 346 344 346 349 353 357 356 353 353 356 357
168 175 180 179 178 179 176 171 175 178 177 182 185 183 187 189 184 181 181 179 177 176 177 180 180 179 180 179 177 179 178 172 170 169 165 166 172 176 177 176 178 182 186 189 192 193 192 192 193 198 205 212 222 229 223 221 223 210 188 177 165 159 156 150 145 103 108 101 76 64 40 4 346 342 344 348 355 2 5 1 355 353 353 352 352
170 176 185 187 187 189 182 172 175 180 179 187 193 187 185 190 189 186 184 181 182 184 188 190 190 193 195 194 193 192 193 191 186 181 179 175 177 183 183 176 173 177 183 189 193 197 201 201 200 204 210 215 222 230 226 220 221 215 200 187 178 173 164 159 156 131 130 114 50 24 352 342 341 344 350 359 3 1 357 351 345 344 345 346 350
178 182 184 186 187 190 188 182 182 184 182 187 195 192 187 187 188 189 188 187 190 195 199 201 201 203 205 204 202 200 201 202 198 193 192 188 182 181 180 177 174 175 177 181 183 189 199 204 204 207 214 218 225 233 226 210 208 207 201 197 191 180 170 167 163 152 160 297 323 334 340 342 344 349 357 4 1 351 344 340 335 337 342 345 353
201 193 186 185 184 188 191 190 189 191 192 192 195 195 195 193 194 197 197 196 199 203 205 207 206 208 210 208 206 206 206 206 205 203 202 202 198 190 186 186 186 182 179 180 182 182 185 191 197 202 210 218 226 228 212 202 205 205 199 198 192 178 170 171 166 175 320 326 323 331 345 350 347 351 358 360 358 355 355 354 350 348 349 350 353
242 220 199 193 191 193 196 198 197 200 204 205 204 203 205 206 205 205 204 204 208 208 206 206 206 208 212 212 210 210 210 209 210 211 211 215 215 209 203 200 200 198 194 192 194 195 193 192 194 199 205 210 217 223 212 204 207 205 197 193 187 178 183 200 180 332 334 333 329 333 344 348 344 345 353 359 7 9 5 2 359 354 351 349 347
210 213 203 200 202 204 207 210 210 211 215 218 218 214 214 217 216 213 212 212 214 215 211 211 211 211 212 214 214 213 213 212 213 216 220 222 222 222 219 213 210 212 213 210 209 211 210 206 203 209 216 212 207 212 209 196 191 190 190 189 186 189 279 340 334 331 337 338 334 336 342 348 352 358 7 9 7 3 359 357 354 350 347 345 343
156 159 184 195 202 206 211 217 220 222 225 227 226 224 224 225 224 223 221 219 220 223 223 223 223 221 218 217 216 214 215 216 217 219 222 224 224 224 222 220 219 221 223 223 221 222 224 222 218 219 221 212 198 196 196 190 185 184 185 186 188 212 12 2 331 326 338 340 339 343 350 1 12 15 10 1 352 352 353 351 346 344 343 342 342
156 161 199 214 220 217 216 220 224 230 235 235 233 232 230 229 229 229 227 225 224 225 227 229 231 229 225 222 219 219 220 221 222 224 226 227 227 226 225 226 228 229 229 231 230 230 230 228 225 224 222 216 206 199 196 194 192 188 185 191 220 329 351 349 339 342 346 345 352 1 4 6 359 350 347 345 341 344 347 342 339 338 336 335 338
333 330 321 299 283 271 263 255 246 242 243 244 244 241 238 236 234 232 231 229 227 226 227 229 230 231 230 228 226 224 224 224 224 227 230 231 228 228 229 230 233 235 236 237 235 233 231 231 230 227 222 219 213 204 196 194 199 200 201 218 244 282 349 8 27 21 4 352 356 -0 355 349 346 342 343 340 335 339 340 334 331 331 329 331 335
3 348 342 328 306 289 279 274 268 261 255 252 252 251 246 242 239 237 236 234 231 229 228 229 231 232 232 232 231 229 228 226 224 226 234 239 236 231 230 230 231 235 237 237 235 232 229 227 225 220 214 209 205 200 194 194 205 221 235 242 220 159 125 97 76 51 27 1 355 356 351 349 346 339 337 334 329 330 330 324 322 324 326 330 333
35 23 9 349 329 312 293 280 273 268 265 263 261 259 256 251 246 242 240 238 236 234 231 230 233 234 235 237 236 233 231 230 230 234 242 249 244 234 227 226 231 234 234 232 228 225 222 219 217 216 210 200 195 193 190 194 215 235 232 180 149 146 127 103 82 44 19 355 351 1 -0 352 345 337 331 325 323 324 321 313 312 317 323 327 328
11 8 -0 348 339 332 319 305 293 282 276 272 270 268 266 263 258 251 245 241 238 238 237 235 236 238 240 240 237 233 232 234 237 238 238 242 242 235 229 231 233 230 226 223 220 213 209 208 206 202 194 185 182 180 179 186 194 187 179 160 152 155 109 90 75 23 1 347 351 357 352 347 340 335 330 325 325 324 310 298 304 316 325 330 333
354 353 348 339 332 330 327 322 315 303 291 283 278 274 271 270 267 262 257 251 244 243 244 244 243 243 242 241 240 241 243 244 244 240 237 240 238 231 231 232 226 219 213 208 203 192 181 179 176 172 171 169 166 169 171 172 167 168 177 180 177 180 102 95 79 -0 352 4 353 344 344 343 336 335 336 332 328 319 291 291 313 327 333 338 342
347 344 342 336 328 325 324 323 320 315 305 294 284 277 271 269 268 266 264 259 252 248 248 248 247 246 245 245 245 247 248 248 247 242 236 235 231 227 233 229 218 216 215 205 194 182 171 169 168 164 162 159 156 157 159 159 162 172 191 204 182 152 127 130 113 354 12 14 346 340 342 344 337 339 344 339 325 305 292 310 325 333 338 341 342